#timestamp,LO_Frequency,Hit,StdDev 
1618084815.3,286046994.9,N
1618084835.1,286046997.8,N
1618084855.9,286046995.4,N
1618084875.7,286046997.6,N
1618084895.6,286046998.2,N
1618084915.4,286046999.8,N
1618084935.2,286046999.8,N
1618084955.1,286047002.4,N
1618084956.0,286047002.4,N
1618084975.8,286047000.8,N
1618084995.6,286046995.4,N
1618085015.5,286046995.0,N
1618085035.3,286046998.0,N
1618085055.2,286046997.0,N
1618085075.9,286047000.5,N
1618085095.7,286046999.7,N
1618085115.6,286047001.1,N
1618085135.4,286046999.2,N
1618085155.2,286046998.2,N
1618085175.1,286047002.7,N
1618085176.0,286047002.7,N
1618085195.8,286047003.9,N
1618085215.7,286047000.4,N
1618085235.5,286047000.1,N
1618085255.3,286046996.6,N
1618085275.2,286046997.8,N
1618085295.0,286046995.2,N
1618085295.9,286046995.2,N
1618085315.8,286046994.6,N
1618085335.6,286046992.5,N
1618085355.4,286046990.2,Y
1618085375.3,286047000.7,P
1618085395.1,286047000.7,N
1618085415.8,286046998.5,N
1618085435.7,286046997.1,N
1618085455.5,286046999.1,N
1618085475.4,286046998.2,N
1618085495.2,286046999.0,N
1618085515.0,286046998.8,N
1618085515.9,286046998.8,N
1618085535.8,286047000.5,N
1618085555.6,286047000.8,N
1618085575.4,286047000.9,N
1618085595.3,286047000.8,N
1618085615.1,286047000.7,N
1618085635.9,286046998.2,N
1618085655.7,286046999.0,N
1618085675.5,286046999.2,N
1618085695.4,286046999.2,N
1618085715.2,286046998.9,N
1618085735.0,286047000.9,N
1618085735.9,286047000.9,N
1618085755.8,286047002.1,N
1618085775.6,286047005.0,Y
1618085795.5,286047005.1,P
1618085815.3,286047001.8,N
1618085835.1,286046998.7,N
1618085855.9,286046995.7,N
1618085875.7,286046995.5,N
1618085895.5,286046995.4,N
1618085915.4,286046995.4,N
1618085935.2,286046995.6,N
1618085955.1,286046996.1,N
1618085956.0,286046996.1,N
1618085975.8,286046995.8,N
1618085995.6,286046995.0,N
1618086015.5,286046997.7,N
1618086035.3,286046997.4,N
1618086055.1,286046993.7,N
1618086075.9,286046997.9,N
1618086095.7,286047011.9,Y
1618086115.6,286046999.2,P
1618086135.4,286046996.8,P
1618086155.2,286046997.9,N
1618086175.1,286046997.4,N
1618086176.0,286046997.4,Y
1618086195.8,286047001.1,P
1618086215.7,286047000.7,N
1618086235.5,286046999.0,N
1618086255.3,286046999.4,N
1618086275.2,286046998.3,N
1618086295.9,286047000.5,N
1618086315.7,286047000.0,N
1618086335.6,286047001.4,N
1618086355.4,286047002.3,N
1618086375.2,286047000.3,N
1618086395.1,286047000.6,N
1618086396.0,286047000.6,N
1618086415.8,286046998.5,N
1618086435.7,286046998.5,N
1618086455.5,286047000.6,N
1618086475.3,286047002.6,N
1618086495.2,286047000.1,N
1618086515.0,286047002.7,N
1618086515.9,286047002.7,N
1618086535.7,286046999.9,N
1618086555.6,286046999.8,N
1618086575.4,286046999.7,N
1618086595.3,286047002.2,N
1618086615.1,286046998.6,N
1618086616.0,286046998.6,N
1618086635.8,286046999.5,N
1618086655.7,286046998.0,N
1618086675.5,286046995.3,Y
1618086695.3,286046994.9,P
1618086715.2,286046995.3,N
1618086735.0,286046997.5,N
1618086735.9,286046997.5,N
1618086755.8,286046996.9,N
1618086775.6,286046996.6,N
1618086795.4,286046999.6,N
1618086815.3,286046995.3,N
1618086835.1,286046997.8,N
1618086855.8,286046997.5,N
1618086875.7,286046996.3,N
1618086895.5,286046997.8,N
1618086915.4,286046996.2,N
1618086935.2,286046995.2,Y
1618086955.0,286046997.9,P
1618086955.9,286046997.9,P
1618086975.8,286046997.3,P
1618086995.6,286046998.8,Y
1618087015.5,286047004.2,P
1618087035.3,286047004.1,N
1618087055.1,286047004.4,N
1618087075.9,286047000.2,N
1618087095.7,286047002.7,N
1618087115.5,286047002.3,N
1618087135.4,286047001.1,N
1618087155.2,286047001.0,N
1618087175.1,286047002.7,N
1618087176.0,286047002.7,N
1618087195.8,286046999.9,N
1618087215.6,286047000.9,N
1618087235.5,286047001.2,N
1618087255.3,286046999.0,N
1618087275.1,286046999.1,N
1618087295.9,286046998.5,N
1618087315.7,286046998.7,N
1618087335.6,286046998.8,N
1618087355.4,286046998.5,N
1618087375.2,286047002.0,N
1618087395.1,286047002.3,N
1618087396.0,286047002.3,N
1618087415.8,286047002.8,N
1618087435.6,286047002.2,N
1618087455.5,286047001.4,N
1618087475.3,286047001.5,N
1618087495.2,286047003.2,N
1618087515.9,286047003.6,N
1618087535.7,286047004.1,N
1618087555.6,286047002.2,N
1618087575.4,286047002.8,N
1618087595.2,286047000.5,N
1618087615.1,286047000.7,N
1618087616.0,286047000.7,N
1618087635.8,286046999.3,N
1618087655.7,286046998.7,N
1618087675.5,286047000.3,N
1618087695.3,286046999.7,N
1618087715.2,286047001.9,N
1618087735.0,286047000.1,N
1618087735.9,286047000.1,N
1618087755.8,286047002.2,N
1618087775.6,286047000.9,N
1618087795.4,286047001.0,N
1618087815.3,286047001.2,N
1618087835.1,286046998.3,N
1618087855.8,286046999.0,N
1618087875.7,286046998.4,N
1618087895.5,286046998.5,N
1618087915.4,286047001.2,N
1618087935.2,286046998.5,N
1618087955.0,286047001.1,N
1618087955.9,286047001.1,N
1618087975.8,286046998.4,N
1618087995.6,286046998.8,N
1618088015.4,286047000.8,N
1618088035.3,286046999.6,N
1618088055.1,286046995.4,Y
1618088075.9,286046995.8,P
1618088095.7,286046995.6,N
1618088115.5,286046998.3,N
1618088135.4,286047001.1,N
1618088155.2,286046999.8,N
1618088175.1,286047000.3,N
1618088176.0,286047000.3,N
1618088195.8,286047002.4,N
1618088215.6,286047001.6,N
1618088235.5,286047002.0,N
1618088255.3,286046998.9,N
1618088275.2,286046996.6,N
1618088295.9,286046998.1,N
1618088315.7,286046998.1,N
1618088335.6,286046999.7,N
1618088355.4,286047001.3,N
1618088375.2,286047004.0,N
1618088395.1,286047000.0,N
1618088396.0,286047000.0,N
